Home > Weather > Taipei > Past weeks

Flag for Taiwan Weather for the Past 2 Weeks in Taipei, Taiwan

Now
64 °F

Passing clouds.


Feels Like: 64 °F
Forecast: 64 / 78 °F
Wind: 3 mph from Northwest

Location: Sungshan / Taipei

Current Time: Feb 12, 2016 at 5:32:30 AM

Latest Report: Feb 12, 2016 at 5:00 AM


Visibility: N/A

Pressure: 30.01 "Hg

Humidity: 83%

Dew point: 59 °F

Location of TaipeiLocation

Historic Weather in Taipei — Graph

°F

Taipei Temperature Yesterday

Maximum temperature yesterday: 81 °F (at 12:55 PM)
Minimum temperature yesterday: 63 °F (at 7:00 AM)
Average temperature yesterday: 69 °F

High & Low Weather Summary for the Past Weeks

 TemperatureHumidityPressure
High81 °F (Feb 11, 12:55 PM)94% (Jan 29, 2:00 AM)30.36 "Hg (Jan 29, 2:00 AM)
Low41 °F (Feb 8, 4:00 AM)23% (Feb 8, 2:00 PM)29.92 "Hg (Feb 11, 1:30 PM)
Average60 °F71%30.17 "Hg
* Reported Jan 28 4:00 AM — Feb 12 4:00 AM, Taipei, Weather by CustomWeather, © 2016

Note: Actual official high and low records may vary slightly from our data, if they occured in-between our weather recording intervals... More about our weather records

Advertising

Taipei Weather History for the Previous 24 Hours

 ConditionsComfort  
Time TempWeatherWind HumidityBarometerVisibility
4:00 AM
Fri, Feb 12
64 °FPartly cloudy.5 mph83%29.98 "HgN/A
3:00 AM66 °FPassing clouds.6 mph78%30.01 "HgN/A
2:00 AM64 °FPassing clouds.6 mph83%29.98 "Hg5 mi
1:00 AM66 °FPassing clouds.No wind78%29.98 "Hg5 mi
12:00 AM66 °FPassing clouds.1 mph78%29.98 "HgN/A
11:30 PM
Thu, Feb 11
66 °FPassing clouds.No wind73%29.98 "HgN/A
11:00 PM66 °FPassing clouds.1 mph73%29.98 "HgN/A
10:30 PM68 °FPassing clouds.1 mph69%29.98 "HgN/A
10:00 PM68 °FPassing clouds.3 mph69%30.01 "HgN/A
9:30 PM68 °FPartly cloudy.5 mph73%30.04 "HgN/A
9:00 PM68 °FPartly cloudy.5 mph73%30.04 "HgN/A
8:30 PM68 °FPartly cloudy.3 mph73%30.04 "Hg5 mi
8:00 PM66 °FPartly cloudy.5 mph78%30.04 "Hg5 mi
7:30 PM66 °FPassing clouds.2 mph78%30.04 "Hg5 mi
7:00 PM64 °FPassing clouds.2 mph83%30.04 "Hg5 mi
6:30 PM64 °FPassing clouds.6 mph83%30.04 "Hg5 mi
6:00 PM64 °FPassing clouds.9 mph83%30.01 "Hg6 mi
5:30 PM66 °FPartly sunny.12 mph78%30.01 "Hg6 mi
5:00 PM66 °FBroken clouds.7 mph83%30.01 "HgN/A
4:56 PM66 °FBroken clouds.7 mph83%29.98 "HgN/A
4:04 PM68 °FBroken clouds.8 mph73%29.98 "HgN/A
3:48 PM68 °FLight rain. Partly sunny.8 mph78%29.95 "HgN/A
3:30 PM68 °FLight rain. Partly sunny.9 mph73%29.95 "HgN/A
3:00 PM70 °FLight rain. Partly sunny.12 mph69%29.95 "HgN/A
2:56 PM70 °FLight rain. Partly sunny.12 mph69%29.95 "HgN/A
2:30 PM70 °FPartly sunny.13 mph69%29.95 "HgN/A
2:00 PM72 °FPartly sunny.12 mph65%29.92 "HgN/A
1:30 PM73 °FPartly sunny.12 mph61%29.92 "HgN/A
1:00 PM77 °FBroken clouds.10 mph54%29.95 "HgN/A
12:55 PM81 °FBroken clouds.9 mph48%29.95 "HgN/A
12:30 PM79 °FBroken clouds.14 mph54%29.95 "HgN/A
12:00 PM79 °FScattered clouds.6 mph54%29.98 "HgN/A
11:30 AM77 °FScattered clouds.9 mph57%29.98 "HgN/A
11:00 AM75 °FPassing clouds.9 mph61%30.01 "HgN/A
10:00 AM68 °FScattered clouds.8 mph73%30.07 "Hg4 mi
9:30 AM66 °FFog.5 mph78%30.07 "Hg3 mi
9:00 AM64 °FFog.3 mph78%30.09 "Hg3 mi
8:00 AM64 °FLight rain. Partly sunny.8 mph78%30.09 "Hg3 mi
7:30 AM64 °FBroken clouds.14 mph73%30.09 "Hg4 mi
7:00 AM63 °FScattered clouds.12 mph83%30.04 "Hg4 mi
6:30 AM64 °FPassing clouds.8 mph78%30.01 "HgN/A
5:00 AM68 °FPassing clouds.12 mph69%29.98 "HgN/A
Weather by CustomWeather, © 2016

See weather overviewHow to use our weather pages